Location: �perlecques
(50.8057°N, 2.1521°E)
Time: 05:36:46
(UTC+00:00)

Transit 4A - Visible Passes

Search period start: 31 July 2021 00:00
Search period end: 10 August 2021 00:00
Orbit: 872 x 972 km, 66.8° (Epoch: 30 July)

Date Brightness Start Highest point End Pass type
(mag) Time Alt. Az. Time Alt. Az. Time Alt. Az.
31 Jul 7.8 00:13:07 41° S 00:15:05 65° ESE 00:20:52 10° NE visible
31 Jul 9.0 01:56:36 11° W 02:01:49 35° NW 02:07:09 10° NNE visible
31 Jul 9.3 22:38:26 19° ESE 22:38:46 19° ESE 22:42:41 10° ENE visible
01 Aug 7.7 00:21:55 38° SW 00:24:20 88° SE 00:30:13 10° NE visible
01 Aug 9.4 02:06:23 10° W 02:11:24 29° NNW 02:16:26 10° NNE visible
01 Aug 8.8 22:47:10 26° ESE 22:47:47 27° ESE 22:52:34 10° NE visible
02 Aug 7.9 00:30:39 30° SW 00:33:41 69° NW 00:39:31 10° NE visible
02 Aug 9.7 02:16:23 10° W 02:21:04 24° NNW 02:25:44 10° NNE visible
02 Aug 8.3 22:55:53 35° SE 22:56:52 38° ESE 23:02:12 10° NE visible
03 Aug 8.4 00:39:21 22° WSW 00:43:05 52° NW 00:48:48 10° NNE visible
03 Aug 9.9 02:26:26 10° WNW 02:30:46 21° NNW 02:35:06 10° NNE visible
03 Aug 7.9 23:04:31 42° SSE 23:06:01 53° ESE 23:11:41 10° NE visible
04 Aug 8.8 00:47:59 15° WSW 00:52:33 41° NW 00:58:04 10° NNE visible
04 Aug 10.1 02:36:31 10° WNW 02:40:32 19° NNW 02:44:33 10° NNE visible
04 Aug 9.4 21:29:37 15° ESE 21:29:53 15° ESE 21:32:55 10° ENE visible
04 Aug 7.7 23:13:05 40° SSW 23:15:14 73° SE 23:21:05 10° NE visible
05 Aug 9.2 00:56:52 10° W 01:02:06 32° NW 01:07:20 10° NNE visible
05 Aug 10.2 02:46:33 10° NW 02:50:19 17° N 02:54:06 10° NNE visible
05 Aug 9.0 21:38:05 21° ESE 21:38:51 21° ESE 21:43:07 10° ENE visible
05 Aug 7.8 23:21:33 31° SW 23:24:32 83° NW 23:30:25 10° NE visible
06 Aug 9.6 01:06:49 10° W 01:11:43 27° NNW 01:16:37 10° NNE visible
06 Aug 10.3 02:56:29 10° NW 03:00:08 17° N 03:03:47 10° NE visible
06 Aug 8.6 21:46:28 27° SE 21:47:54 30° ESE 21:52:54 10° NE visible
06 Aug 8.1 23:29:54 21° SW 23:33:54 63° NW 23:39:43 10° NE visible
07 Aug 9.9 01:16:51 10° WNW 01:21:23 23° NNW 01:25:57 10° NNE visible
07 Aug 10.3 03:06:17 10° NW 03:09:57 17° N 03:13:38 10° NE visible
07 Aug 8.1 21:54:39 29° SSE 21:57:00 42° ESE 22:02:28 10° NE visible
07 Aug 8.6 23:38:05 12° WSW 23:43:20 48° NW 23:48:59 10° NNE visible
08 Aug 10.1 01:26:54 10° WNW 01:31:07 20° NNW 01:35:21 10° NNE visible
08 Aug 10.3 03:15:56 10° NNW 03:19:46 17° N 03:23:36 10° NE visible
08 Aug 9.5 20:19:33 10° ESE 20:21:02 11° E 20:22:30 10° E visible
08 Aug 7.8 22:02:36 23° SSW 22:06:11 59° ESE 22:11:55 10° NE visible
08 Aug 9.1 23:47:26 10° WSW 23:52:50 37° NW 23:58:15 10° NNE visible
09 Aug 10.3 01:36:59 10° NW 01:40:53 18° NNW 01:44:49 10° NNE visible
09 Aug 10.3 03:25:27 10° NNW 03:29:32 19° NNE 03:33:39 10° ENE visible
09 Aug 9.2 20:26:47 11° SE 20:29:58 17° ESE 20:33:30 10° ENE visible
09 Aug 7.7 22:10:10 13° SSW 22:15:26 81° SE 22:21:17 10° NE visible
